Content
SEND FEEDBACK

Daily
Averages
Monthly
Summary
United States of America

CYPRESS MILL, TEXAS


Home > North America > United States > Texas
Elevation: 280 meters     Latitude: 30 23N     Longitude: 098 15W

WEATHER
 
SELECT A DAY
Number of Records: 114,082;   Date Range: 6/5/09 - 4/18/14
 
SHARE

PRINT THIS DATA

[ ← Previous Day ]
WEATHER ALMANAC - 31 JANUARY, 2013
[ Next Day → ]
[ °F ]   °C
Weather ElementAverageHighLow
Temperature9.4 °C20 °C (1:55 pm)-2 °C (4:35 am)
Dewpoint-5.7 °C-2 °C (8:35 am)-8 °C (9:35 am)
Humidity40.6 %80 % (5:55 am)16 % (1:55 pm)
Barometer1023 hPa1025.1 hPa (9:35 am)1021 hPa (3:35 pm)
Wind Speed6.4 km/h20.4 km/h (9:55 am)
Wind Gust35.2 km/h (1:15 pm)
Weather ElementAverage
Visibility16.1 km
Wind DirectionSE (130.9 °)

Weather ElementTotal
Precipitation---
Heating Degree Days9.3 (Base 18.3)
Averaged from 68 records on 31 January, 2013
WEATHER CONDITIONS BREAKOUT
WIND DIRECTION BREAKOUT
WEATHER BY HOUR - 31 JANUARY, 2013
[ °F ]   °C
Local TimeTemperatureDewpointHumidityBarometerVisibilityWind DirectionWind SpeedGust SpeedPrecipitationEventsConditions
12:35 AM2 °C-6 °C56 %1022.7 hPa16.1 kmCalmClear
12:55 AM1 °C-6 °C60 %1022.4 hPa16.1 kmCalmClear
1:15 AM1 °C-6 °C60 %1022.4 hPa16.1 kmCalmClear
1:35 AM0 °C-5 °C69 %1022 hPa16.1 kmCalmClear
1:55 AM0 °C-5 °C69 %1022 hPa16.1 kmCalmClear
2:15 AM0 °C-6 °C64 %1022 hPa16.1 kmCalmClear
2:35 AM-1 °C-6 °C69 %1022 hPa16.1 kmSouth (190°)5.6 km/hClear
2:55 AM-1 °C-6 °C69 %1022 hPa16.1 kmCalmClear
3:15 AM-1 °C-6 °C69 %1022 hPa16.1 kmSouth (190°)5.6 km/hClear
3:35 AM-1 °C-6 °C69 %1021.7 hPa16.1 kmSouth (190°)5.6 km/hClear
3:55 AM-1 °C-6 °C69 %1022 hPa16.1 kmCalmClear
4:15 AM-1 °C-6 °C69 %1022 hPa16.1 kmCalmClear
4:35 AM-2 °C-6 °C74 %1022.4 hPa16.1 kmCalmClear
4:55 AM-1 °C-5 °C75 %1022 hPa16.1 kmCalmClear
5:15 AM-2 °C-6 °C74 %1022.4 hPa16.1 kmCalmClear
5:55 AM-2 °C-5 °C80 %1023 hPa16.1 kmCalmClear
6:15 AM-2 °C-5 °C80 %1023.4 hPa16.1 kmCalmClear
6:35 AM-1 °C-5 °C75 %1023.4 hPa16.1 kmCalmClear
7:15 AM3 °C-5 °C56 %1024 hPa16.1 kmCalmClear
7:35 AM2 °C-3 °C70 %1024 hPa16.1 kmCalmClear
7:55 AM3 °C-3 °C65 %1024.4 hPa16.1 kmCalmClear
8:15 AM5 °C-3 °C57 %1024.4 hPa16.1 kmCalmClear
8:35 AM6 °C-2 °C57 %1024.4 hPa16.1 kmCalmClear
8:55 AM9 °C-2 °C46 %1024.4 hPa16.1 kmWNW (300°)5.6 km/hClear
9:15 AM10 °C-2 °C43 %1024.7 hPa16.1 kmCalmClear
9:35 AM14 °C-8 °C21 %1025.1 hPa16.1 kmWSW (250°)16.7 km/h31.5 km/hClear
9:55 AM15 °C-8 °C20 %1024.7 hPa16.1 kmWSW (240°)20.4 km/h29.6 km/hClear
10:15 AM16 °C-8 °C19 %1024.7 hPa16.1 kmWSW (240°)14.8 km/h29.6 km/hClear
10:35 AM16 °C-7 °C20 %1024.7 hPa16.1 kmWSW (240°)16.7 km/h33.3 km/hClear
10:55 AM17 °C-7 °C19 %1024.4 hPa16.1 kmSW (220°)16.7 km/h31.5 km/hClear
11:15 AM17 °C-7 °C19 %1024 hPa16.1 kmSW (220°)16.7 km/h31.5 km/hClear
11:35 AM18 °C-7 °C18 %1023.7 hPa16.1 kmSW (220°)16.7 km/hClear
11:55 AM19 °C-7 °C17 %1023 hPa16.1 kmSSW (200°)13 km/h27.8 km/hClear
12:15 PM19 °C-7 °C17 %1022.7 hPa16.1 kmWSW (240°)9.3 km/hClear
12:35 PM19 °C-7 °C17 %1022.4 hPa16.1 kmWSW (250°)14.8 km/hClear
12:55 PM19 °C-7 °C17 %1022 hPa16.1 kmSW (230°)14.8 km/h25.9 km/hClear
1:15 PM19 °C-7 °C17 %1021.7 hPa16.1 kmSouth (190°)18.5 km/h35.2 km/hClear
1:35 PM19 °C-7 °C17 %1021.7 hPa16.1 kmWSW (240°)11.1 km/hClear
1:55 PM20 °C-7 °C16 %1021.7 hPa16.1 kmSW (230°)20.4 km/h33.3 km/hClear
2:15 PM19 °C-7 °C17 %1021.7 hPa16.1 kmWSW (240°)13 km/hClear
2:35 PM19 °C-7 °C17 %1021.7 hPa16.1 kmSW (220°)11.1 km/hClear
2:55 PM19 °C-7 °C17 %1021.7 hPa16.1 kmWSW (240°)18.5 km/h27.8 km/hClear
3:15 PM19 °C-7 °C17 %1021.3 hPa16.1 kmSW (220°)9.3 km/hClear
3:35 PM19 °C-7 °C17 %1021 hPa16.1 kmSW (230°)14.8 km/hClear
3:55 PM18 °C-7 °C18 %1021 hPa16.1 kmSSW (210°)9.3 km/hClear
4:15 PM18 °C-7 °C18 %1021 hPa16.1 kmSW (220°)9.3 km/hClear
4:35 PM17 °C-7 °C19 %1021 hPa16.1 kmSSW (200°)9.3 km/hClear
4:55 PM16 °C-7 °C20 %1021.3 hPa16.1 kmSSW (210°)5.6 km/hClear
5:15 PM15 °C-6 °C23 %1021.7 hPa16.1 kmSW (220°)7.4 km/hClear
5:35 PM13 °C-5 °C29 %1022 hPa16.1 kmSSW (200°)5.6 km/hClear
5:55 PM12 °C-5 °C30 %1022.4 hPa16.1 kmSSW (200°)5.6 km/hClear
6:15 PM12 °C-5 °C30 %1022.7 hPa16.1 kmSSW (200°)7.4 km/hClear
6:35 PM12 °C-5 °C30 %1023 hPa16.1 kmSSW (200°)5.6 km/hClear
6:55 PM12 °C-6 °C28 %1023 hPa16.1 kmSSW (200°)7.4 km/hClear
7:15 PM13 °C-6 °C26 %1023.4 hPa16.1 kmSSW (200°)7.4 km/hClear
7:35 PM13 °C-6 °C26 %1023.4 hPa16.1 kmSSW (200°)7.4 km/hClear
7:55 PM12 °C-6 °C28 %1023.7 hPa16.1 kmSSW (200°)7.4 km/hClear
8:15 PM13 °C-6 °C26 %1023.7 hPa16.1 kmSSW (210°)7.4 km/hClear
8:35 PM12 °C-6 °C28 %1024 hPa16.1 kmSSW (200°)5.6 km/hClear
8:55 PM12 °C-6 °C28 %1024 hPa16.1 kmSSW (200°)5.6 km/hClear
9:15 PM12 °C-6 °C28 %1024 hPa16.1 kmSSW (210°)5.6 km/hClear
9:35 PM11 °C-6 °C30 %1024 hPa16.1 kmSouth (190°)5.6 km/hClear
9:55 PM9 °C-5 °C37 %1024.4 hPa16.1 kmCalmClear
10:35 PM6 °C-5 °C46 %1024.4 hPa16.1 kmCalmClear
10:55 PM5 °C-4 °C53 %1024.4 hPa16.1 kmCalmClear
11:15 PM5 °C-4 °C53 %1024.7 hPa16.1 kmCalmClear
11:35 PM4 °C-4 °C56 %1024.4 hPa16.1 kmCalmClear
11:55 PM3 °C-3 °C65 %1024.4 hPa16.1 kmCalmClear
Hourly data recorded from KDZB, located 19.94 kilometers away from Cypress Mill, Texas







STORIES FROM OUR PARTNERS